Location: Bastrop State Park
(30.1090°N, 97.2819°W)
Time: 11:31:12
(UTC-05:00)

Daily predictions for brighter satellites

Satellite Brightness Start Highest point End
(mag) Time Altitude Azimuth Time Altitude Azimuth Time Altitude Azimuth
Cosmos 923 Rocket 4.1 20:42:56 10° SSW 20:48:16 87° WNW 20:53:35 10° NNE
Resurs 1-3 3.8 20:49:30 10° SSE 20:53:45 52° ENE 20:58:01 10° N
Aureole 3 Rocket 4.0 20:49:39 10° SSE 20:56:01 46° E 21:00:37 10° NNE
Meteor 2-4 Rocket 4.1 20:58:42 10° SSE 21:04:01 46° E 21:09:31 10° NNE
Cosmos 1455 Rocket 3.0 21:00:05 10° N 21:04:26 89° WSW 21:08:45 10° S
Cosmos 1939 Rocket 4.3 21:01:45 10° ESE 21:04:35 20° ENE 21:07:28 10° NNE
Meteor 1-29 4.0 21:02:38 10° NE 21:05:28 25° E 21:08:19 10° SSE
Cosmos 1943 Rocket 3.3 21:04:58 10° NW 21:10:12 43° WSW 21:15:22 10° S
Resurs 01 Rocket 1.8 21:08:01 10° S 21:12:26 77° WSW 21:16:52 10° NNW
Hubble Space Telescope 1.7 21:10:39 10° SW 21:14:14 29° SSE 21:17:02 14° ESE
SL-08 ROCKET BODY 4.4 21:14:15 10° N 21:20:27 75° E 21:26:37 10° S
Cosmos 2112 Rocket 4.5 21:15:29 10° SSW 21:20:40 66° WNW 21:25:50 10° N
Helios 1A 3.4 21:18:21 14° SE 21:21:44 44° ENE 21:25:44 10° N
Nadezhda 1 Rocket 4.1 21:16:36 10° S 21:22:49 61° E 21:29:07 10° NNE
Cosmos 405 Rocket 3.6 21:20:24 10° SSW 21:24:01 49° W 21:27:45 10° N
Spot 2 Rocket 3.8 21:20:39 10° S 21:25:38 66° WSW 21:30:39 10° NNW
SL-27 R/B 3.9 21:24:12 10° SW 21:27:40 43° WNW 21:31:10 10° N
Cosmos 1441 Rocket 3.1 21:26:25 10° S 21:30:09 90° ESE 21:33:54 10° N
Aurora 2 Rocket 4.3 21:25:09 10° W 21:31:28 50° S 21:37:49 19° ESE
NOSS 8 (E) 4.4 21:28:03 10° SSW 21:31:37 64° ESE 21:35:03 10° NE
GPS 2-04 Rocket1 4.2 21:30:17 10° S 21:31:32 15° S 21:31:32 15° S
COSMOS 2455 4.4 21:32:55 10° NW 21:38:08 31° WSW 21:43:19 10° SSW
Helios 1B rocket 2.8 21:37:52 10° N 21:41:59 65° WNW 21:46:04 10° SSW
Meteor 1-23 Rocket 4.2 21:41:08 10° S 21:46:41 90° E 21:52:19 10° N
CZ-3A R/B 2.2 21:40:02 10° SW 21:47:07 51° NW 21:49:34 10° NNE
SAR-Lupe-4 3.4 21:45:44 29° SSE 21:47:29 77° ENE 21:51:03 10° N
Envisat 3.0 21:43:38 14° S 21:48:00 81° WSW 21:53:06 10° NNW
Cosmos 2154 Rocket 4.3 21:42:55 10° N 21:49:03 50° E 21:52:35 25° SE
Cosmos 1892 Rocket 4.1 21:49:00 30° SE 21:50:23 39° E 21:54:30 10° NNE
ASTRO E2 3.5 21:47:53 10° W 21:51:35 37° SSW 21:52:37 31° SSE
Cosmos 2056 Rocket 4.1 21:48:12 10° N 21:52:58 38° ENE 21:54:40 29° ESE
YAOGAN 6 2.6 21:54:22 45° SE 21:55:05 56° ENE 21:58:31 10° N
Cosmos 2082 Rocket 2.4 21:50:35 13° S 21:55:18 48° ESE 22:00:44 10° NNE
Okean 1-7 Rocket 4.1 21:53:12 10° SSW 21:57:35 60° W 22:02:02 10° N
Okean 2 3.3 21:56:16 20° S 21:59:04 88° W 22:03:09 10° N
CZ-4B DEB 3.0 22:01:02 44° SSW 22:01:41 59° W 22:04:38 10° NNW
DNEPR-1 R/B 4.1 21:58:11 10° NW 22:02:31 58° WSW 22:04:58 27° S
SAR-Lupe-1 4.1 22:02:31 39° S 22:03:42 73° WSW 22:07:17 10° NNW
Cosmos 1025 Rocket 3.7 22:00:59 10° SSW 22:05:08 53° W 22:09:18 10° N
Cosmos 1606 Rocket 3.7 22:02:55 10° N 22:07:08 51° E 22:07:45 46° ESE
SPOT 5 3.8 22:07:20 25° ENE 22:07:24 25° ENE 22:10:57 10° NNE
COSMOS 2487 2.5 22:11:33 44° SSW 22:12:34 77° WNW 22:16:09 10° NNE
Cosmos 405 3.8 22:11:15 10° NNW 22:14:40 48° W 22:15:37 37° SW
Cosmos 1726 Rocket 3.6 22:11:48 10° N 22:16:02 53° E 22:16:14 52° E
Meteor 1-15 Rocket 4.1 22:12:33 10° N 22:18:08 88° W 22:20:33 36° S
Cosmos 1697 Rocket 4.2 22:14:42 10° NNE 22:18:51 21° ENE 22:19:38 20° ENE
MOS 1-B Rocket 4.0 22:19:43 42° SE 22:21:36 63° ENE 22:27:50 10° N
Timation 2 Rocket 4.1 22:20:08 39° SSE 22:21:56 49° ESE 22:27:55 10° NNE
ERS-1 Rocket 2.8 22:21:26 47° SSE 22:22:56 88° ENE 22:27:59 10° NNW
MetOp-A 4.1 22:22:43 49° SE 22:24:01 66° ENE 22:29:19 10° N
Cosmos 2369 4.0 22:18:43 10° N 22:24:16 50° ENE 22:25:22 44° ESE
Cosmos 2341 Rocket 4.0 22:18:45 10° N 22:25:07 73° E 22:27:23 42° SSE
Cosmos 1833 Rocket 2.6 22:23:55 18° SSW 22:28:07 89° WNW 22:33:46 10° NNE
SPOT 1/Viking Rocket 4.3 22:30:09 36° ENE 22:30:16 36° ENE 22:34:57 10° N
OAO 2 Rocket 3.3 22:27:51 10° WNW 22:32:47 73° NNE 22:33:36 59° ENE
Cosmos 1371 Rocket 4.4 22:27:40 10° NNW 22:32:51 59° WSW 22:34:30 40° SSW
Cosmos 2218 Rocket 4.5 22:27:29 10° NNE 22:33:13 39° E 22:33:41 39° E
CENTAUR R/B 4.4 22:26:41 10° NW 22:33:44 32° WSW 22:39:48 14° SSW
Cosmos 2058 Rocket 3.1 22:31:41 10° N 22:35:48 65° NE 22:35:48 65° NE
YAOGAN 11 4.1 22:39:39 69° NE 22:39:39 69° NE 22:43:36 10° N
Nimbus 7 Rocket 4.3 22:33:34 10° NNE 22:39:39 75° ESE 22:41:18 50° S
Cosmos 1437 Rocket 3.9 22:40:59 10° NNW 22:44:36 38° W 22:44:47 38° WSW
Cosmos 468 4.4 22:45:41 71° S 22:46:18 89° ESE 22:51:36 10° NNE
Cosmos 2181 Rocket 4.3 22:43:11 25° SSW 22:46:57 64° W 22:53:13 10° N
H-2A R/B 4.2 22:48:48 18° NE 22:48:48 18° NE 22:50:48 10° NNE
Cosmos 1066 Rocket 4.1 22:48:41 61° SSW 22:49:41 84° W 22:55:19 10° N
Cosmos 1295 Rocket 4.5 22:46:07 10° N 22:52:22 81° W 22:53:50 55° S
Hubble Space Telescope 2.9 22:51:08 10° WSW 22:52:27 19° WSW 22:52:27 19° WSW
Cosmos 1626 Rocket 4.5 22:58:52 42° NNE 22:58:52 42° NNE 23:01:47 10° N
Cosmos 158 Rocket 4.3 22:58:44 57° NE 22:58:44 57° NE 23:03:07 10° NNE
Meteor 2-21 4.4 22:54:57 10° N 23:00:50 62° ENE 23:00:50 62° ENE
ARGOS 3.2 23:02:22 68° SW 23:02:41 70° WSW 23:08:06 10° NNW
Cosmos 1980 Rocket 3.3 23:03:12 10° N 23:07:36 31° NE 23:07:36 31° NE
Cosmos 864 Rocket 4.4 23:03:47 10° N 23:09:54 70° ENE 23:09:54 70° ENE
Cosmos 2228 4.2 23:09:32 10° NNW 23:12:42 39° NW 23:12:42 39° NW
Cosmos 921 Rocket 4.5 23:10:28 10° NW 23:13:51 32° W 23:13:51 32° W
H-2A R/B 2.4 23:18:38 59° NNW 23:18:38 59° NNW 23:22:45 10° NNW
Cosmos 2322 Rocket 4.4 23:17:02 10° NNE 23:19:28 14° NE 23:19:28 14° NE
Meteor 1-21 4.4 23:23:48 67° N 23:23:48 67° N 23:28:43 10° N
SL-8 Rocket 4.4 23:22:08 10° NNW 23:28:13 53° W 23:28:51 51° WSW
Mugunghwa Rocket 4.4 23:22:59 10° W 23:30:29 66° SW 23:30:29 66° SW
Terra 3.1 23:34:23 37° N 23:34:23 37° N 23:37:17 10° N
Cosmos 2366 rocket 4.1 23:29:08 10° NNW 23:34:59 65° W 23:34:59 65° W
